Torna al catalogo

DMSP 5D-2 F13 DEB

AttivoSSO
NORAD 42265·DEBRIS·🇺🇸 United States

Lanciato Mar 24, 1995 da Vandenberg Space Force Base

Loading…

Prossimi Passaggi (prossime 24 ore)

TLE

AggiornatoSource: Space-Track

Epoca: Sep 13, 2026, 08:58 UTC

1 42265U 95015GF  26256.37401749  .00002911  00000-0  94666-3 0  9992
2 42265  98.6727 296.4211 0005821 114.7162 245.4632 14.39554183561295

Traccia DMSP 5D-2 F13 DEB in tempo reale con AllMySat

Download on the App Store